Location: Oberkirch
(48.5323°N, 8.0787°E)
Time: 07:29:11
(UTC+00:00)

NOSS 2-1 (D) - Pass Details

Date: 08 November 2025
Orbit: 374 x 1680 km, 63.3° (Epoch: 12 December)

Event Time Altitude Azimuth Distance (km) Brightness Sun altitude
Exits shadow 04:16:40 66° 59° (ENE) 461 3.0 -21.4°
Drops below altitude 10° 04:19:13 11° 43° (NE) 1,382 5.9 -21.0°
Sets 04:21:12 0° 42° (NE) 2,251 7.0 -20.6°
